Waarnemingen

Advertentie
Mijn weer
Helsingborg, Zweden (2611): temperatuur & dauwpunt: 19.01.2021 12:00:00 - 25.01.2021 12:00:00 (CET)Helsingborg, Zweden (2611): windsnelheid & windstoten: 19.01.2021 12:00:00 - 25.01.2021 12:00:00 (CET)Helsingborg, Zweden (2611): windrichting: 19.01.2021 12:00:00 - 25.01.2021 12:00:00 (CET)Helsingborg, Zweden (2611): luchtdruk: 19.01.2021 12:00:00 - 25.01.2021 12:00:00 (CET)Helsingborg, Zweden (2611): zicht: 19.01.2021 12:00:00 - 25.01.2021 12:00:00 (CET)Helsingborg, Zweden (2611): neerslag: 19.01.2021 12:00:00 - 25.01.2021 12:00:00 (CET)
Datum & Tijd tt [°C] td [°C] ff [km/u] ff [kn] fx [km/u] fx [kn] dd ppp [hPa] vv [km] rr [mm]
25.01.2021 12:00:00 2,0 1,4 7 4 11 6 WZW 998,9 15 0,2
25.01.2021 11:00:00 1,3 0,9 3 2 8 5 WZW 998,5 3,8 0,2
25.01.2021 10:00:00 0,9 0,5 0 0 6 3 N 998,0 4,8 0,2
25.01.2021 09:00:00 1,2 0,8 4 2 9 5 ZW 997,5 6 0,0
25.01.2021 08:00:00 1,3 0,9 5 3 8 5 ZZW 997,2 6 0,0
25.01.2021 07:00:00 1,2 0,8 2 1 6 3 ZW 996,8 5 0,1
25.01.2021 06:00:00 1,1 0,8 4 2 8 5 ZW 996,7 5 0,0
25.01.2021 05:00:00 0,6 0,3 0 0 4 2 N 996,5 2,4 -
25.01.2021 04:00:00 0,6 0,3 0 0 5 3 N 996,6 4,1 0,0
25.01.2021 03:00:00 0,6 0,3 0 0 4 2 N 996,5 4,5 -
25.01.2021 02:00:00 0,6 0,3 0 0 5 3 N 996,4 4,3 0,0
25.01.2021 01:00:00 0,7 0,4 2 1 4 2 ZO 996,4 2,1 0,4
25.01.2021 00:00:00 0,7 0,3 0 0 5 3 N 996,5 0,8 0,1
24.01.2021 23:00:00 0,6 0,2 0 0 5 3 N 996,5 1,1 0,0
24.01.2021 22:00:00 1,0 0,5 0 0 3 2 N 996,5 2,1 0,0
24.01.2021 21:00:00 1,3 0,9 0 0 4 2 N 996,6 2,5 0,0
24.01.2021 20:00:00 1,6 1,2 0 0 4 2 N 996,7 2,2 0,0
24.01.2021 19:00:00 1,8 1,2 0 0 5 3 N 996,7 2,2 0,0
24.01.2021 18:00:00 2,0 1,4 2 1 8 5 ZZO 996,8 2,8 0,0
24.01.2021 17:00:00 2,1 1,4 3 1 7 4 OZO 996,8 2,7 0,0
24.01.2021 16:00:00 2,7 1,8 0 0 10 5 N 996,6 4,3 0,0
24.01.2021 15:00:00 3,1 2,2 4 2 8 5 Z 996,5 7 0,0
24.01.2021 14:00:00 3,1 2,5 3 2 9 5 ZZO 996,2 6 0,0
24.01.2021 13:00:00 2,8 2,4 4 2 9 5 ZZO 996,5 4,1 0,0
24.01.2021 12:00:00 2,8 2,4 3 1 11 6 ZZO 996,5 3,6 0,0
24.01.2021 11:00:00 2,2 1,9 3 2 8 4 ZO 996,6 2,1 0,0
24.01.2021 10:00:00 1,6 1,2 2 1 7 4 ZO 996,2 2,1 0,0
24.01.2021 09:00:00 1,1 0,8 3 2 8 4 ZO 996,0 2,7 0,0
24.01.2021 08:00:00 0,8 0,5 3 1 8 4 ZO 995,5 3,5 0,0
24.01.2021 07:00:00 0,7 0,4 2 1 8 5 OZO 995,1 3,5 0,0
24.01.2021 06:00:00 0,6 0,3 2 1 11 6 ZO 994,9 2,5 0,0
24.01.2021 05:00:00 0,8 0,5 4 2 13 7 ZO 994,9 2,3 0,0
24.01.2021 04:00:00 0,2 -0,2 3 2 6 4 OZO 994,9 1,9 0,0
24.01.2021 03:00:00 0,7 0,3 2 1 7 4 ZO 994,6 2,2 0,0
24.01.2021 02:00:00 1,1 0,7 2 1 6 3 ZO 994,6 3,0 0,0
24.01.2021 01:00:00 1,0 0,6 3 2 6 3 ZO 994,8 3,1 0,0
24.01.2021 00:00:00 0,8 0,4 0 0 5 3 N 994,6 2,2 0,0
23.01.2021 23:00:00 0,6 0,0 0 0 5 3 N 994,6 3,1 0,0
23.01.2021 22:00:00 1,0 0,4 3 2 7 4 Z 994,5 5 0,0
23.01.2021 21:00:00 0,7 -0,2 0 0 11 6 N 994,8 6 0,0
23.01.2021 20:00:00 2,3 1,3 3 2 10 6 ZZO 994,7 9 0,0
23.01.2021 19:00:00 2,6 1,7 5 3 15 8 ZO 994,7 8 0,0
23.01.2021 18:00:00 2,3 1,6 8 4 14 8 ZO 994,6 7 0,0
23.01.2021 17:00:00 2,4 1,5 5 3 11 6 OZO 994,9 6 0,0
23.01.2021 16:00:00 2,6 1,8 5 3 13 7 ZO 995,1 8 0,0
23.01.2021 15:00:00 2,6 1,7 7 4 13 7 ZO 995,3 6 0,0
23.01.2021 14:00:00 2,9 2,0 8 5 16 8 ZO 995,5 8 0,0
23.01.2021 13:00:00 2,8 2,1 8 4 13 7 ZO 995,9 8 0,0
23.01.2021 12:00:00 2,7 2,0 4 2 12 7 ZZO 996,5 7 0,0
23.01.2021 11:00:00 2,9 2,3 4 2 11 6 ZO 996,7 8 0,0
23.01.2021 10:00:00 2,3 1,8 6 4 13 7 Z 996,6 7 0,0
23.01.2021 09:00:00 1,9 1,3 5 3 17 9 ZZO 996,1 6 0,0
23.01.2021 08:00:00 2,0 1,3 10 5 17 9 ZZW 995,7 8 0,0
23.01.2021 07:00:00 1,8 0,9 9 5 16 9 ZZW 995,1 11 0,0
23.01.2021 06:00:00 1,9 0,9 9 5 17 9 ZZW 994,5 12 0,0
23.01.2021 05:00:00 2,4 1,1 8 4 19 10 ZW 994,4 13 0,0
23.01.2021 04:00:00 3,0 1,6 8 4 21 11 ZW 994,0 14 0,0
23.01.2021 03:00:00 3,3 1,5 10 5 30 16 ZW 993,4 18 0,0
23.01.2021 02:00:00 3,6 1,3 14 7 26 14 ZW 992,6 25 0,0
23.01.2021 01:00:00 4,6 1,8 18 10 33 18 ZW 991,9 28 0,0
23.01.2021 00:00:00 4,8 1,6 19 10 44 24 ZW 990,8 21 0,0
22.01.2021 23:00:00 4,6 1,8 20 11 44 24 ZW 989,9 14 0,0
22.01.2021 22:00:00 4,8 1,5 28 15 42 23 ZZW 988,8 23 0,0
22.01.2021 21:00:00 4,8 1,6 26 14 46 25 ZZW 987,9 20 0,0
22.01.2021 20:00:00 4,7 1,4 27 15 47 26 ZZW 987,1 22 0,0
22.01.2021 19:00:00 4,4 1,4 29 16 53 28 ZZW 986,4 19 0,0
22.01.2021 18:00:00 4,4 1,1 28 15 51 27 ZZW 985,9 21 0,0
22.01.2021 17:00:00 4,4 0,7 27 14 46 25 ZZW 985,5 23 0,0
22.01.2021 16:00:00 4,7 1,0 27 15 44 24 ZZW 985,1 22 0,0
22.01.2021 15:00:00 4,8 1,3 26 14 44 24 ZZW 984,5 27 0,0
22.01.2021 14:00:00 5,2 1,3 28 15 51 27 ZZW 983,8 30 0,0
22.01.2021 13:00:00 4,9 1,7 25 13 44 24 ZZW 983,5 27 0,0
22.01.2021 12:00:00 4,7 2,4 23 12 40 21 ZZW 982,9 36 0,0
22.01.2021 11:00:00 3,9 2,6 19 10 32 17 ZW 982,4 37 0,1
22.01.2021 10:00:00 2,7 1,8 16 9 46 25 WZW 981,2 29 0,2
22.01.2021 09:00:00 5,8 4,9 30 16 53 29 Z 977,7 8 0,7
22.01.2021 08:00:00 5,7 5,0 19 11 42 23 Z 977,3 15 0,6
22.01.2021 07:00:00 5,4 4,8 21 12 43 23 Z 978,5 22 0,7
22.01.2021 06:00:00 4,4 3,8 14 7 28 15 ZO 979,6 8 1,5
22.01.2021 05:00:00 3,9 2,9 9 5 31 17 ZO 981,7 7 0,9
22.01.2021 04:00:00 4,6 2,1 19 10 38 21 Z 983,4 19 0,0
22.01.2021 03:00:00 4,5 2,0 18 10 45 25 Z 984,7 50 0,0
22.01.2021 02:00:00 4,2 2,1 21 12 43 23 Z 985,8 50 0,0
22.01.2021 01:00:00 4,1 2,0 19 10 36 20 Z 986,6 47 0,0
22.01.2021 00:00:00 4,2 1,4 21 12 38 20 Z 987,2 50 0,0
21.01.2021 23:00:00 4,3 1,3 20 11 38 20 Z 987,7 50 0,0
21.01.2021 22:00:00 4,6 1,4 26 14 41 22 Z 987,8 48 0,0
21.01.2021 21:00:00 4,8 1,3 24 13 37 20 Z 987,6 50 0,0
21.01.2021 20:00:00 4,5 1,4 23 13 42 23 Z 988,0 47 0,0
21.01.2021 19:00:00 4,3 1,7 22 12 40 22 Z 988,0 43 0,0
21.01.2021 18:00:00 4,4 1,6 21 11 40 21 Z 988,0 49 0,0
21.01.2021 17:00:00 4,8 2,0 18 10 35 19 Z 988,2 44 0,0
21.01.2021 16:00:00 5,8 1,2 21 12 39 21 Z 988,0 50 0,0
21.01.2021 15:00:00 6,5 0,6 21 11 42 23 ZZW 987,8 40 0,0
21.01.2021 14:00:00 7,1 1,4 27 14 46 25 ZZW 987,4 47 0,0
21.01.2021 13:00:00 7,6 2,3 24 13 45 24 ZZW 986,9 48 0,0
21.01.2021 12:00:00 6,2 2,8 27 14 52 28 Z 986,1 46 0,0
21.01.2021 11:00:00 5,1 3,1 24 13 47 25 Z 985,8 20 0,5
21.01.2021 10:00:00 6,2 2,3 23 12 45 25 Z 985,6 50 0,0
21.01.2021 09:00:00 5,6 2,4 23 12 42 23 Z 986,6 49 0,0
21.01.2021 08:00:00 5,2 2,4 16 9 38 20 Z 987,5 49 0,0
21.01.2021 07:00:00 5,2 2,7 19 11 36 19 Z 988,2 50 0,0
21.01.2021 06:00:00 4,8 2,7 17 9 40 22 Z 988,9 47 0,0
21.01.2021 05:00:00 5,2 3,1 18 10 40 21 Z 990,0 44 0,0
21.01.2021 04:00:00 4,8 2,8 13 7 28 15 ZZO 990,7 50 0,0
21.01.2021 03:00:00 4,4 2,7 14 7 26 14 Z 991,4 40 0,0
21.01.2021 02:00:00 4,5 3,2 13 7 26 14 Z 992,1 41 0,0
21.01.2021 01:00:00 4,7 3,4 13 7 30 16 Z 992,5 40 0,1
21.01.2021 00:00:00 4,8 3,9 15 8 25 13 Z 993,3 21 0,7
20.01.2021 23:00:00 5,0 4,0 14 8 24 13 Z 993,5 14 0,3
20.01.2021 22:00:00 5,4 4,5 14 7 23 12 Z 993,4 34 -
20.01.2021 21:00:00 5,6 5,0 11 6 22 12 Z 993,4 9 0,0
20.01.2021 20:00:00 5,4 5,0 11 6 24 13 Z 993,6 8 0,0
20.01.2021 19:00:00 6,0 5,6 16 9 26 14 ZZW 993,6 5 0,0
20.01.2021 18:00:00 5,8 5,5 16 9 27 15 ZZW 993,5 6 0,1
20.01.2021 17:00:00 5,6 5,2 16 9 27 15 Z 993,2 2,1 0,4
20.01.2021 16:00:00 5,6 5,2 18 10 27 14 Z 993,1 9 0,2
20.01.2021 15:00:00 5,4 5,1 17 9 34 18 Z 992,8 7 1,0
20.01.2021 14:00:00 5,3 5,0 19 11 32 18 Z 992,8 4,3 0,8
20.01.2021 13:00:00 5,2 4,9 20 11 31 17 Z 993,3 5 0,2
20.01.2021 12:00:00 4,8 4,5 18 10 29 16 Z 993,7 3,4 0,8
20.01.2021 11:00:00 4,8 4,5 16 8 26 14 Z 994,2 6 1,7
20.01.2021 10:00:00 5,2 5,0 17 9 29 15 Z 994,5 11 1,5
20.01.2021 09:00:00 5,1 5,0 15 8 26 14 Z 994,5 7 1,2
20.01.2021 08:00:00 5,1 5,0 17 9 26 14 Z 994,5 2,6 0,6
20.01.2021 07:00:00 4,7 4,6 11 6 18 10 Z 994,6 5 0,8
20.01.2021 06:00:00 3,0 2,9 7 4 22 12 ZZO 995,1 6 0,9
20.01.2021 05:00:00 2,2 2,1 11 6 20 11 ZO 995,7 2,5 0,7
20.01.2021 04:00:00 2,0 1,9 11 6 25 14 ZO 996,4 2,1 0,5
20.01.2021 03:00:00 1,9 1,8 12 6 21 12 ZO 996,8 2,2 0,6
20.01.2021 02:00:00 1,8 1,7 10 5 19 10 ZO 997,4 1,6 0,5
20.01.2021 01:00:00 1,4 1,1 7 4 15 8 OZO 998,0 0,7 0,6
20.01.2021 00:00:00 1,5 1,2 8 4 14 8 ZO 998,3 0,6 0,1
19.01.2021 23:00:00 2,5 2,2 8 4 18 10 Z 998,7 1,4 0,0
19.01.2021 22:00:00 2,4 2,1 12 7 20 11 Z 998,9 6 0,0
19.01.2021 21:00:00 2,3 2,0 11 6 18 10 Z 999,1 8 0,0
19.01.2021 20:00:00 1,9 1,6 8 4 15 8 Z 999,0 - 0,0
19.01.2021 19:00:00 1,1 0,8 6 4 16 9 ZO 999,1 3,9 0,0
19.01.2021 18:00:00 0,8 0,4 8 4 16 9 ZO 999,5 5 0,0
19.01.2021 17:00:00 1,2 0,8 8 4 22 12 ZO 1000,0 14 0,5
19.01.2021 16:00:00 1,7 1,3 10 6 24 13 Z 1000,0 9 0,8
19.01.2021 15:00:00 1,8 1,4 14 7 29 16 Z 1000,3 6 0,4
19.01.2021 14:00:00 2,2 1,9 16 9 27 15 Z 1000,6 12 0,3
19.01.2021 13:00:00 2,5 2,2 14 7 29 16 Z 1001,7 4,4 0,5
19.01.2021 12:00:00 2,7 2,6 13 7 22 12 Z 1002,5 4,4 0,0

tt = temperatuur
td = dauwpunt
ff = windsnelheid
fx = windstoten
dd = windrichting
ppp = luchtdruk
vv = zicht
rr = neerslag

Weerstations in de omgeving